Flugplatz Hengsen-Opherdicke (UL)

Hier findest Du alle Informationen zum Flugplatz Hengsen-Opherdicke (UL).

Informationen für Piloten zum Flugplatz Hengsen-Opherdicke

Hier findest Du alle relevanten Informationen, die Du als Pilot benötigst, um Hengsen-Opherdicke anzufliegen.

Flugplatz: Hengsen-Opherdicke ICAO-Code: UL Flugplatz
Frequenz Turm: 123.350 Mhz GAFOR Gebiet: 33
Frequenz Ground: 123.350 Mhz Mogas: nein
Platzrunde: S 1400 ft Landegebühr: 3,5 €
Platzhöhe: - Sunrise: 06:01 Uhr UTC
Pisten: 07/25 - 580 m x 30 m, GRAS Sunset: 16:27 Uhr UTC

Mitglieder, die in Hengsen-Opherdicke fliegen

Flugwetter am Flugplatz Hengsen-Opherdicke

Die METAR Information stammen aus EDLW (5.37 km entfernt).

METAR Code:
2020/10/18 08:20
EDLW 180820Z 22007KT 4000 BR OVC009 08/07 Q1022

Flugschulen am Flugplatz Hengsen-Opherdicke

Am Flugplatz Hengsen-Opherdicke gibt es leider keine Flugschule.

Benachbarte Flugplätze und Flugschulen

Es gibt 25 weitere Flugplätze in einem Umkreis von 50 km um den Flugplatz Hengsen-Opherdicke.

Jetzt anmelden

Passwort vergessen

Umfrage Archiv

Wären Rettungsgeräte keine Pflicht mehr, würdet Ihr Euer UL trotzdem mit einem ausstatten?

Ja
86.3 %
Nein
13.7 %
Stimmen: 351 | Diskussion
Anzeige: Roland Aircraft
Statistik Alle Mitglieder

Aktuell sind 42 Besucher online, davon 1 Mitglied und 41 Gäste.


Mitglieder online:
Moskito_Andi 

Anzeige: VFR Sprechfunk Simulator


Anzeige: Pocket FMS